Regional Weather Roundup
Issued by NWS

Home | Current Version | Previous Version | Text Only | Print | Product List | Glossary On
Versions: 1 2 3 4 5 6 7 8 9 10 11 12 13 14 15 16 17 18 19 20 21 22 23 24 25 26 27 28 29 30 31 32 33 34 35 36 37 38 39 40 41 42 43 44 45 46 47 48 49 50
602
ASUS43 KMKX 200759
RWRWI

WISCONSIN REGIONAL WEATHER ROUNDUP
NATIONAL WEATHER SERVICE MILWAUKEE/SULLIVAN WI
200 AM CST SAT JAN 20 2018

NOTE: "FAIR" INDICATES FEW OR NO CLOUDS BELOW 12,000 FEET WITH NO
SIGNIFICANT WEATHER AND/OR OBSTRUCTIONS TO VISIBILITY.

WIZ001-002-006>008-014>016-023>028-200900-
NORTHWEST WISCONSIN

CITY           SKY/WX    TMP DP  RH WIND       PRES   REMARKS
SUPERIOR ARPT  FAIR      35  30  82 W5        29.69R WCI  31
ASHLAND        FAIR      33  27  78 SW9       29.69R WCI  25
HAYWARD        FAIR      20  17  88 S3        29.70R FOG
SIREN          FAIR      29  27  90 CALM      29.72R
CUMBERLAND     FAIR      27  23  86 W8        29.71R WCI  18
RICE LAKE      FOG       21  21  97 CALM      29.73R VSB 1/2
CHETEK         FAIR      21  20  96 CALM      29.72R FOG
LADYSMITH      FAIR      20  19  95 CALM      29.71R FOG
EAU CLAIRE     NOT AVBL
MENOMONIE      FAIR      29  27  94 W5        29.73R WCI  24
NEW RICHMOND   FAIR      26  24  92 CALM      29.74R
OSCEOLA        FAIR      21  21 100 CALM      29.77R FOG
$$

WIZ003>005-009-010-017-018-200900-
NORTH CENTRAL WISCONSIN

CITY           SKY/WX    TMP DP  RH WIND       PRES   REMARKS
MANITOWISH WTR FAIR      28  27  95 W5        29.63R WCI  23
ARBOR VITAE    FAIR      32  28  83 W6        29.64R WCI  26
WOODRUFF       FAIR      32  28  83 W6        29.64R WCI  26
RHINELANDER    FAIR      31  27  85 W9        29.66R WCI  23
EAGLE RIVER    FAIR      24  24 100 SW5       29.63R FOG     WCI  19
LAND O LAKES   FAIR      25  22  90 CALM      29.63R
PHILLIPS       FAIR      23  23 100 CALM      29.68R
TOMAHAWK       FAIR      31  26  81 W5        29.67R WCI  26
MEDFORD        FAIR      31  27  86 W6        29.68R WCI  25
MERRILL        FAIR      30  27  87 W6        29.68R WCI  24
$$

WIZ029-030-035-036-043>047-200900-
CENTRAL WISCONSIN

CITY           SKY/WX    TMP DP  RH WIND       PRES   REMARKS
WAUSAU         FAIR      34  28  79 NW9       29.68R WCI  27
MOSINEE        FAIR      32  30  93 W5        29.69R WCI  27
MARSHFIELD     FAIR      31  27  85 W5        29.70R WCI  26
STEVENS POINT  FAIR      32  28  84 SW3       29.70R
WAUPACA        FAIR      37  29  74 W6        29.69R WCI  32
WAUTOMA        FAIR      30  25  81 SW5       29.73R WCI  25
WISC RAPIDS    FAIR      31  26  82 CALM      29.72R
CAMP DOUGLAS   FAIR      26  25  98 CALM      29.72R
$$

WIZ011>013-019>022-031-037>040-048>050-200900-
NORTHEAST WISCONSIN

CITY           SKY/WX    TMP DP  RH WIND       PRES   REMARKS
ANTIGO         FAIR      32  27  84 W8        29.65R WCI  24
SHAWANO        FAIR      37  29  73 SW5       29.66R WCI  33
OCONTO         FAIR      37  28  72 W7        29.64R WCI  31
STURGEON BAY   FAIR      37  28  70 SW12      29.66R WCI  29
GREEN BAY      FAIR      34  27  75 SW5       29.68R WCI  30
MANITOWOC      FAIR      37  28  70 W13       29.68R WCI  29
APPLETON       FAIR      32  25  74 W10       29.66R WCI  24
CLINTONVILLE   FAIR      36  28  75 W7        29.67R WCI  30
OSHKOSH        FAIR      35  28  75 S8        29.70R WCI  29
$$

WIZ032>034-041-042-053>061-200900-
SOUTHWEST WISCONSIN

CITY           SKY/WX    TMP DP  RH WIND       PRES   REMARKS
LA CROSSE      FAIR      31  28  89 S8        29.75R WCI  23
SPARTA         FAIR      26  25  96 CALM      29.73S
VIROQUA        FAIR      33  32  96 W8        29.72R WCI  26
BOSCOBEL       FAIR      32  27  81 S3        29.77R
PRAIRIE DU CHI FAIR      32  25  76 W3        29.76R
PLATTEVILLE    FAIR      32  29  88 SW9       29.75R WCI  24
$$

WIZ056-057-062-063-064-067-068-200900-
SOUTH CENTRAL WISCONSIN

CITY           SKY/WX    TMP DP  RH WIND       PRES   REMARKS
REEDSBURG      FAIR      34  28  78 SW3       29.72R
BARABOO/DELLS  FAIR      34  27  75 SW6       29.72R WCI  29
LONE ROCK      NOT AVBL
MINERAL POINT  FAIR      36  32  87 SW5       29.74R WCI  32
MADISON        FAIR      34  27  75 CALM      29.75R
MIDDLETON      FAIR      37  29  73 W5        29.73R WCI  33
WATERTOWN      FAIR      35  29  81 SW6       29.73R WCI  29
MONROE         FAIR      34  28  80 SW13      29.74R WCI  25
JANESVILLE     FAIR      36  28  75 SW8       29.76R WCI  29
$$

WIZ051-052-058>065-066-070>072-200900-
SOUTHEAST WISCONSIN

CITY           SKY/WX    TMP DP  RH WIND       PRES   REMARKS
MILWAUKEE      FAIR      40  29  64 W13G22    29.73R WCI  32
WAUKESHA       FAIR      36  28  75 SW12G17   29.74R WCI  27
MILWAUKEE/TIMM FAIR      37  27  65 W9        29.74R WCI  31
RACINE         FAIR      39  28  64 W9        29.76R WCI  33
BURLINGTON     FAIR      38  28  67 SW10      29.75R WCI  31
KENOSHA        FAIR      39  28  64 SW13      29.76R WCI  31
FOND DU LAC    FAIR      34  26  72 SW8       29.72R WCI  27
SHEBOYGAN      FAIR      38  30  73 W13       29.69R WCI  30
WEST BEND      FAIR      36  28  75 W10G16    29.71R WCI  28
JUNEAU         FAIR      31  26  81 S6        29.73R WCI  25
$$

LSZ147-162-200900-
LAKE SUPERIOR

STATION/POSITION TIME  TEMP    WIND        PRES    WAVE
                       AIR SEA DIR/SP/G            HT/PER
                 (UTC) (F)     (DEG/KT/KT) (MB)    (FT/S)
DEVILS ISLAND    0700   37     260/ 18/ 21 1003.3R
SAXON HARBOR     0740   31     210/  5/  7 1004.4R
$$

LMZ867-665-643>646-200900-
LAKE MICHIGAN

STATION/POSITION TIME  TEMP    WIND        PRES    WAVE
                       AIR SEA DIR/SP/G            HT/PER
                 (UTC) (F)     (DEG/KT/KT) (MB)    (FT/S)
NORTHPORT PIER   0740   38     240/  6/ 15 1003.0R
KEWAUNEE LAKESHO 0730   38     280/  9/ 14 1003.2R
SHEBOYGAN LAKESH 0700   40     250/ 10/ 12 1005.2R
PORT WASHINGTON  0730   39     250/  7/ 11 1006.8R
MILWAUKEE LAKESH 0730   40     250/ 12/ 15   N/A
KENOSHA   LAKESH 0700   41     240/  9/ 17 1007.5
$$

TC  - TEMPERATURE IN CELSIUS
VSB - VISIBILITY IN STATUTE MILES
WCI - WIND CHILL INDEX
HX  - HEAT INDEX





USA.gov is the U.S. government's official web portal to all federal, state and local government web resources and services.